Location: Newark
(47.5783°N, 6.7622°E)
Time: 07:38:07
(UTC+00:00)

S-56A Canister/Altair - All Passes

Search period start: 28 February 2020 00:00
Search period end: 09 March 2020 00:00
Orbit: 633 x 2500 km, 38.9° (Epoch: 27 February)

Date Brightness Start Highest point End Pass type
(mag) Time Alt. Az. Time Alt. Az. Time Alt. Az.
28 Feb - 06:09:10 10° SSE 06:14:23 14° SE 06:20:09 10° E daylight
28 Feb - 08:06:25 10° SSW 08:17:22 38° SE 08:30:26 10° E daylight
28 Feb - 10:09:08 10° WSW 10:22:25 58° SSE 10:36:54 10° E daylight
28 Feb - 12:14:04 10° W 12:28:24 58° SSW 12:41:59 10° ESE daylight
28 Feb - 14:20:23 10° W 14:33:31 38° SW 14:44:50 10° SSE daylight
28 Feb - 16:30:33 10° W 16:36:37 14° SW 16:42:10 10° SSW daylight
29 Feb - 05:39:26 10° SE 05:41:35 11° ESE 05:43:50 10° ESE visible
29 Feb - 07:33:58 10° SSW 07:44:11 35° SE 07:56:39 10° E daylight
29 Feb - 09:36:11 10° WSW 09:48:55 56° SSE 10:03:27 10° E daylight
29 Feb - 11:40:45 10° W 11:54:51 59° S 12:08:53 10° ESE daylight
29 Feb - 13:46:44 10° W 14:00:14 42° SSW 14:12:13 10° SSE daylight
29 Feb - 15:55:41 10° W 16:03:43 17° SW 16:10:56 10° SSW daylight
01 Mar - 07:01:40 10° SSW 07:11:05 31° SE 07:22:45 10° E daylight
01 Mar - 09:03:19 10° SW 09:15:28 54° SSE 09:29:54 10° E daylight
01 Mar - 11:07:32 10° W 11:21:17 60° S 11:35:39 10° ESE daylight
01 Mar - 13:13:11 10° W 13:26:52 45° SSW 13:39:28 10° SE daylight
01 Mar - 15:21:17 10° W 15:30:44 21° SW 15:39:13 10° S daylight
02 Mar - 06:29:31 10° S 06:38:05 27° SE 06:48:45 10° E daylight
02 Mar - 08:30:35 10° SW 08:42:04 51° SSE 08:56:17 10° E daylight
02 Mar - 10:34:25 10° WSW 10:47:43 61° S 11:02:19 10° ESE daylight
02 Mar - 12:39:44 10° W 12:53:26 47° SSW 13:06:36 10° SE daylight
02 Mar - 14:47:09 10° W 14:57:39 24° SW 15:07:13 10° S daylight
03 Mar - 05:57:32 10° S 06:05:09 23° SE 06:14:37 10° E daylight
03 Mar - 07:57:55 10° SW 08:08:45 48° SSE 08:22:35 10° E daylight
03 Mar - 10:01:23 10° WSW 10:14:10 61° S 10:28:55 10° ESE daylight
03 Mar - 12:06:23 10° W 12:19:58 50° SSW 12:33:37 10° SE daylight
03 Mar - 14:13:13 10° W 14:24:30 27° SW 14:34:59 10° S daylight
04 Mar - 05:25:47 10° S 05:32:20 19° SE 05:40:20 10° E visible
04 Mar - 07:25:23 10° SW 07:35:31 45° SSE 07:48:50 10° E daylight
04 Mar - 09:28:27 10° WSW 09:40:40 60° S 09:55:25 10° ESE daylight
04 Mar - 11:33:08 10° W 11:46:29 52° SSW 12:00:31 10° SE daylight
04 Mar - 13:39:28 10° W 13:51:18 30° SW 14:02:34 10° SSE daylight
05 Mar - 04:54:20 10° SSE 04:59:35 16° SE 05:05:48 10° E visible
05 Mar - 06:52:56 10° SW 07:02:23 41° SSE 07:15:02 10° E daylight
05 Mar - 08:55:36 10° WSW 09:07:13 59° S 09:21:50 10° E daylight
05 Mar - 10:59:58 10° W 11:12:59 54° SSW 11:27:18 10° SE daylight
05 Mar - 13:05:52 10° W 13:18:02 33° SW 13:29:59 10° SSE daylight
05 Mar - 15:19:06 10° WSW 15:21:18 10° SW 15:23:28 10° SW daylight
06 Mar - 04:23:33 10° SSE 04:26:56 12° SE 04:30:42 10° ESE visible
06 Mar - 06:20:37 10° SSW 06:29:21 37° SSE 06:41:10 10° E daylight
06 Mar - 08:22:52 10° WSW 08:33:50 57° S 08:48:11 10° E daylight
06 Mar - 10:26:55 10° W 10:39:29 55° SSW 10:54:00 10° ESE daylight
06 Mar - 12:32:23 10° W 12:44:42 36° SW 12:57:14 10° SSE daylight
06 Mar - 14:42:39 10° WSW 14:48:19 13° SW 14:53:51 10° SSW daylight
07 Mar - 05:48:23 10° SSW 05:56:24 33° SE 06:07:16 10° E daylight
07 Mar - 07:50:12 10° WSW 08:00:32 55° SSE 08:14:29 10° E daylight
07 Mar - 09:53:56 10° W 10:06:01 56° S 10:20:34 10° ESE daylight
07 Mar - 11:59:03 10° W 12:11:21 38° SSW 12:24:22 10° SSE daylight
07 Mar - 14:07:49 10° W 14:15:16 16° SW 14:22:37 10° SSW daylight
08 Mar - 05:16:16 10° SSW 05:23:33 29° SE 05:33:20 10° E visible
08 Mar - 07:17:36 10° WSW 07:27:18 53° SSE 07:40:44 10° E daylight
08 Mar - 09:21:03 10° W 09:32:34 57° S 09:47:04 10° ESE daylight
08 Mar - 11:25:49 10° W 11:37:58 41° SSW 11:51:21 10° SSE daylight
08 Mar - 13:33:33 10° W 13:42:10 18° SW 13:50:48 10° SSW daylight
